Presure
197 190 187 210 209 166 135 140 171 185 183 122 158 169 126 120 178 187 182 164 194 124 154 142 134 152 143 203 190 188 138 198 144 180 172 181 212 149 199 164 202 200 198 131 125
178 178 195 162 151 206 120 157 125 163 187 179 182 155 105 141 135 180 164 193 182 204 196 182 192 166 138 143 139 193 182 183 195 204 200 131 196 162 175 202 164 125 121 134 169
165 160 180 138 198 182 126 201 184 180 176 170 182 174 190 137 181 187 163 162 195 192 196 121 185 192 195 200 198 189 193 187 132 191 202 199 131 186 200 207 208 196 211 161 204
154 195 147 127 194 173 202 128 193 153 127 174 183 197 198 158 163 169 202 179 161 183 188 184 193 198 194 192 139 192 190 187 185 191 192 96 202 201 188 200 210 202 202 202 204
161 132 131 150 175 166 175 153 186 176 176 128 171 166 166 184 166 201 162 162 183 187 196 133 171 195 190 177 190 195 191 175 161 193 164 192 168 127 170 202 197 196 194 197 196
165 162 185 152 153 161 181 155 173 151 159 180 188 171 164 187 188 162 184 189 174 165 198 176 183 190 166 149 167 187 144 163 189 173 193 182 167 180 185 153 163 176 194 190 187
186 185 190 161 176 165 156 159 145 164 172 165 115 182 154 183 164 184 178 178 160 174 155 181 170 174 182 198 179 191 205 95 190 188 110 186 183 188 189 181 143 183 186 188 188
202 197 196 153 182 168 139 160 184 166 154 184 166 161 177 185 189 161 188 190 178 175 169 169 174 103 187 150 171 134 195 188 193 201 186 175 170 118 174 177 173 191 187 189 193
167 188 170 133 159 151 139 191 172 167 136 185 156 175 181 167 192 176 172 167 145 176 167 166 191 174 209 177 200 178 172 205 180 193 137 156 181 186 184 194 197 166 193 193 198
190 197 198 166 170 185 144 148 192 164 176 140 168 186 159 166 183 184 173 163 191 171 168 191 154 174 185 186 184 188 176 186 108 201 178 162 194 186 171 183 200 213 200 196 191
192 172 182 222 175 178 197 205 200 171 206 184 154 174 154 157 195 189 127 190 169 188 161 166 169 170 181 165 159 185 176 180 201 190 202 186 204 201 217 212 189 182 212 219 237
166 186 188 213 199 164 194 152 150 204 177 186 123 171 139 180 165 177 163 166 171 161 195 170 169 193 193 209 216 173 198 191 179 200 210 177 233 220 202 206 217 208 189 173 205
206 177 215 120 195 205 158 175 140 187 187 152 196 164 159 168 186 209 171 175 192 185 175 180 182 201 193 168 175 177 177 187 204 194 204 223 175 210 185 203 204 205 223 230 210
146 166 175 183 189 185 189 218 186 182 184 193 136 153 155 145 195 200 213 208 162 202 187 196 174 178 158 165 180 163 188 175 223 187 217 184 189 185 170 206 254 194 145 221 223
171 226 164 189 169 222 162 183 190 185 194 199 153 185 143 144 199 193 202 218 218 204 124 205 199 186 195 176 229 176 180 202 187 215 203 199 220 199 197 86 82 240 193 192 111
177 196 178 207 202 176 197 196 195 161 197 199 174 193 161 196 195 200 194 211 201 204 133 181 202 227 195 248 210 168 184 168 222 206 209 211 201 219 73 135 243 255 244 239 205
216 192 210 225 188 157 185 177 200 173 188 206 202 187 204 175 213 214 183 197 187 178 202 206 192 162 215 183 195 204 204 216 219 212 212 202 214 209 127 249 185 278 284 254 209
191 207 213 195 236 175 156 199 200 175 169 196 159 177 185 180 197 170 202 196 178 200 190 194 169 198 209 192 153 144 198 188 197 194 194 204 214 235 261 229 238 96 275 264 304
221 225 188 178 229 215 159 198 205 191 166 199 189 205 176 140 172 208 196 188 159 173 166 167 182 185 192 194 210 208 190 212 163 196 158 185 260 268 248 290 275 303 283 305 94
233 225 231 228 232 233 204 168 193 201 183 196 186 199 166 176 183 170 172 198 203 205 203 201 195 182 196 143 189 180 199 193 216 148 196 237 277 273 310 301 303 300 294 295 296
241 228 240 225 245 248 237 217 218 208 194 224 187 180 200 152 183 191 172 196 176 171 181 185 179 187 185 203 206 149 140 181 228 237 249 238 311 302 298 295 293 291 286 285 293
261 273 251 309 238 249 253 241 232 235 240 194 216 212 204 242 199 197 190 152 170 173 178 191 192 199 198 200 206 212 204 208 244 288 303 301 288 289 287 281 286 293 294 325 318
286 291 268 299 260 256 255 244 239 269 260 246 241 243 228 233 231 163 172 202 172 195 190 184 200 189 197 203 205 200 237 251 284 296 286 287 164 118 111 80 293 326 306 231 404
291 293 269 272 289 309 306 298 320 324 289 257 286 266 253 243 224 214 195 199 197 178 245 226 191 225 204 202 230 241 268 283 280 284 279 269 278 284 304 316 309 343 410 405 375
285 297 276 289 278 273 283 296 299 297 297 298 289 275 278 245 256 256 236 250 222 242 247 254 256 212 251 234 270 275 274 279 278 272 271 277 289 305 302 339 392 385 373 388 354
290 287 285 267 275 267 298 297 274 275 285 281 279 283 264 258 257 252 235 244 245 266 210 260 257 247 283 277 268 280 277 272 267 272 278 302 295 291 387 401 388 364 395 370 345
272 270 281 261 287 306 283 276 283 275 273 275 274 272 274 264 270 273 282 253 270 264 265 257 274 252 262 260 270 266 265 266 268 289 294 293 287 375 382 369 373 349 377 363 338
Wind_Speed
48 46 49 49 48 55 57 57 51 50 54 48 55 62 45 51 49 51 54 53 41 57 60 61 58 59 55 42 42 46 61 55 52 50 54 49 49 48 55 57 57 57 57 59 57
46 48 43 59 60 46 61 56 60 53 51 56 54 45 52 52 51 59 57 45 54 37 42 49 46 48 61 63 54 50 58 57 55 52 58 52 56 48 58 57 56 54 54 63 62
52 58 45 66 47 50 65 50 45 48 51 57 54 57 50 59 51 55 53 58 45 43 41 41 44 49 48 43 45 48 50 57 62 52 51 58 43 52 49 52 58 58 56 58 54
58 50 55 67 39 50 46 64 43 55 65 51 48 45 46 64 61 62 45 56 58 55 48 51 39 40 45 46 61 51 54 55 57 50 53 32 53 57 62 56 53 52 54 54 50
68 72 73 58 45 46 40 54 46 51 45 65 48 58 62 52 65 47 65 65 56 50 46 50 62 43 46 53 45 46 50 55 51 53 61 59 60 59 57 58 60 61 61 60 59
71 72 68 68 70 56 51 47 48 67 62 44 44 57 65 53 56 57 53 49 59 65 42 58 50 40 42 49 60 48 52 53 56 63 56 60 63 60 65 59 62 66 65 65 65
79 76 71 73 63 65 72 61 73 61 58 58 55 46 66 39 68 51 54 57 58 62 60 55 69 64 55 42 59 44 45 42 52 55 41 57 64 62 65 70 48 72 71 71 71
80 80 78 79 71 72 73 72 66 67 73 60 65 65 60 52 45 73 49 48 56 65 70 60 60 38 53 55 62 66 51 52 54 55 60 65 66 48 68 69 67 76 76 75 75
72 66 72 76 83 72 73 70 68 74 65 62 80 61 61 71 55 62 63 73 57 65 72 75 56 70 58 68 53 66 68 55 54 61 59 62 67 71 73 73 76 72 79 78 79
63 79 68 65 70 79 81 85 72 74 76 67 80 66 81 68 60 64 71 81 61 79 79 62 60 74 66 61 61 67 73 56 37 65 66 60 73 75 72 74 76 79 82 82 78
94 61 64 79 67 82 74 82 80 71 76 65 87 74 78 77 71 67 63 72 81 63 81 82 86 87 72 75 64 64 77 70 69 70 67 79 74 76 75 81 79 75 76 81 79
68 68 82 83 80 78 76 89 70 79 73 72 59 85 65 73 82 80 91 81 75 81 74 86 74 69 66 66 72 79 66 69 65 70 70 68 68 72 74 76 75 78 80 70 77
87 82 78 65 81 87 72 74 56 70 83 85 76 94 87 69 81 80 67 68 75 66 94 82 78 65 74 80 84 83 83 69 71 77 72 66 82 75 81 80 83 85 76 74 82
71 77 84 81 79 82 83 95 78 81 65 70 54 68 90 67 71 77 75 81 70 70 78 71 72 90 65 63 84 62 76 82 74 85 72 80 84 88 78 86 85 90 51 83 82
88 90 74 96 77 89 78 71 74 77 68 67 78 70 71 59 70 68 71 79 78 70 52 66 71 84 72 80 78 88 84 81 83 73 79 84 73 91 87 7 13 86 92 96 30
100 105 100 94 91 80 85 97 89 67 81 72 68 76 87 82 68 69 74 76 68 69 67 69 75 76 77 72 71 71 82 63 86 78 75 73 84 90 13 48 91 95 91 91 97
112 114 103 101 97 74 94 88 96 78 79 83 76 75 81 81 84 82 74 72 75 77 72 78 76 75 80 77 79 81 76 87 84 82 85 78 85 90 42 99 68 102 99 93 87
122 109 104 109 105 90 68 102 98 74 78 82 55 68 72 73 76 68 78 75 75 75 75 75 68 79 86 78 74 74 81 78 79 75 79 82 87 103 106 94 95 21 90 97 96
120 123 116 101 112 104 75 109 104 92 75 98 87 87 77 69 74 87 79 73 61 73 64 65 74 76 79 80 85 85 79 91 68 85 68 81 110 108 105 105 91 91 88 89 19
130 124 125 122 123 118 118 79 104 105 88 99 86 87 76 79 78 76 71 82 84 87 92 86 86 76 85 72 81 70 85 83 101 59 88 106 109 108 91 92 89 86 86 85 86
132 126 130 120 129 125 121 116 112 113 102 113 89 83 96 75 80 82 72 76 75 76 81 82 86 83 79 92 92 79 60 89 109 105 110 92 84 86 87 85 85 84 82 83 85
118 111 116 100 120 121 119 118 114 116 117 102 110 104 106 108 96 89 80 82 75 77 84 87 89 91 91 92 94 101 97 99 113 98 82 77 78 83 83 84 84 84 85 84 78
88 87 97 89 114 115 115 115 117 107 112 111 114 110 112 113 113 85 78 90 82 88 92 88 91 87 90 96 98 96 112 111 93 79 81 80 40 30 26 18 84 83 76 43 33
77 80 89 90 80 70 72 76 66 66 86 102 93 101 104 107 94 108 91 90 91 84 106 106 89 100 98 97 111 109 95 83 83 80 80 84 82 88 86 84 79 61 32 31 32
70 67 68 64 64 69 69 67 66 61 57 65 80 84 90 106 100 97 97 98 104 103 103 98 98 99 101 105 92 85 82 78 78 79 82 84 86 82 79 60 40 38 35 30 34
62 57 52 57 61 69 65 61 60 64 56 61 63 69 85 87 90 94 100 93 94 85 95 88 91 96 76 72 77 71 73 76 79 81 82 81 79 75 36 30 27 33 25 30 36
49 51 55 58 59 64 58 59 54 48 50 57 62 68 71 76 72 73 70 86 79 77 74 82 73 85 72 73 67 70 72 75 79 83 78 75 73 36 32 28 24 32 27 33 40
Wind_Direction
272 269 271 274 273 263 262 265 259 256 254 268 260 265 259 260 254 262 269 268 263 266 256 263 267 261 267 266 270 269 268 270 272 276 274 276 281 276 276 274 277 274 274 275 278
267 267 278 261 264 267 266 264 267 260 255 256 250 258 264 267 264 264 269 255 268 255 257 259 261 263 264 264 269 265 266 270 272 274 278 267 276 275 274 276 276 277 280 278 277
250 264 270 259 267 256 258 259 255 254 256 259 259 260 251 270 251 259 267 272 253 253 253 266 259 262 263 261 263 265 264 267 272 273 274 277 279 278 278 279 276 277 279 276 272
251 267 259 255 270 255 262 263 249 260 269 257 258 254 252 267 268 270 243 263 271 263 255 261 257 261 265 263 267 264 268 268 269 268 270 273 277 277 276 273 276 279 276 276 275
258 255 254 255 259 255 250 256 245 255 255 267 255 259 262 257 266 249 272 273 261 260 252 265 277 256 259 270 267 266 263 268 270 268 273 273 275 276 278 278 275 275 277 278 276
256 253 266 256 257 245 250 252 237 261 256 251 257 258 262 262 255 264 253 251 264 273 253 267 265 263 262 265 278 262 272 270 265 271 266 274 273 272 276 276 277 276 276 277 278
270 269 270 247 242 245 255 250 263 244 253 251 268 249 266 267 265 258 261 256 266 268 273 259 272 273 262 273 264 267 274 272 265 265 272 269 271 270 269 274 285 276 277 276 275
265 269 273 252 267 239 257 245 267 260 260 254 258 256 251 269 260 262 271 267 264 262 269 265 273 267 271 276 270 262 276 272 267 268 266 274 271 293 275 271 272 270 271 272 271
266 267 262 260 256 247 259 268 249 256 260 260 255 257 263 252 272 250 254 262 267 265 267 272 264 269 266 269 273 269 275 279 272 270 270 277 271 267 270 267 267 278 271 271 271
268 274 265 254 255 259 258 256 266 258 245 258 246 255 255 251 268 268 252 261 268 259 264 273 272 268 269 271 274 269 274 279 276 273 272 275 270 272 276 275 269 268 269 272 274
274 264 270 257 259 255 264 263 266 261 270 262 260 265 265 255 276 271 255 275 261 264 274 268 270 270 262 276 275 272 272 277 281 270 274 276 270 269 271 268 275 278 268 271 276
251 264 272 259 268 255 261 247 261 268 259 261 251 248 258 262 266 264 261 264 265 271 270 267 274 263 265 271 269 273 278 276 279 277 279 280 275 270 270 271 266 267 276 275 270
270 265 257 246 261 265 255 255 263 262 254 259 267 250 253 267 264 271 264 267 264 272 262 266 270 273 270 275 271 270 273 274 277 272 277 276 275 270 277 273 272 270 269 275 268
257 255 265 271 265 256 266 260 263 255 250 257 251 264 257 265 263 270 269 268 264 267 261 266 266 262 264 268 271 275 270 275 275 273 283 279 274 276 273 268 288 277 270 269 269
265 264 247 268 251 253 257 263 262 257 255 260 260 265 257 253 261 263 270 275 272 271 273 276 267 262 272 270 280 268 272 280 272 281 271 271 289 269 270 234 250 282 276 279 266
264 259 264 259 257 254 253 268 265 257 258 264 249 263 252 266 256 264 264 272 262 268 260 263 268 288 265 281 276 269 275 273 281 276 280 282 271 284 236 276 283 283 277 275 271
266 258 257 259 259 252 265 252 262 260 258 261 260 256 269 255 272 272 257 263 258 263 271 271 262 260 282 268 268 278 275 286 287 283 283 276 283 279 284 286 286 285 282 276 271
259 255 258 259 259 257 249 260 263 260 260 263 251 254 254 255 267 260 268 264 258 270 265 266 266 276 283 271 267 271 278 274 278 277 278 281 284 289 287 285 285 281 283 280 280
258 259 256 257 256 257 252 259 255 262 253 268 260 262 250 248 260 266 265 264 255 264 257 263 268 271 274 276 281 280 278 285 279 283 281 287 290 288 289 288 285 282 282 281 276
256 254 256 255 257 254 253 254 259 258 257 264 261 264 257 256 259 255 255 264 269 272 271 275 274 273 276 271 279 276 284 283 291 283 282 292 290 288 285 284 283 283 283 284 283
250 254 254 255 257 255 255 251 253 254 259 257 260 259 264 250 260 257 263 259 265 266 268 273 271 276 278 281 283 272 283 282 292 290 290 290 286 285 284 285 286 286 287 286 285
251 250 254 247 255 257 257 257 253 255 258 260 261 261 263 264 263 260 258 261 260 265 271 269 273 276 279 281 285 286 286 288 290 291 289 287 286 286 287 289 288 290 289 287 285
244 243 246 246 253 255 255 256 256 254 258 257 259 259 259 262 262 256 262 267 264 266 269 271 275 276 280 283 285 285 288 289 291 289 287 288 279 281 276 262 292 293 290 280 250
238 238 244 248 248 251 253 252 255 255 253 253 253 253 256 259 258 263 262 267 268 266 271 273 275 277 281 284 285 287 289 288 288 288 291 290 291 293 294 295 295 291 258 249 234
239 239 242 244 247 247 246 248 250 251 255 256 252 253 253 256 258 258 261 263 268 269 270 274 275 279 279 282 286 287 288 287 287 289 291 293 295 297 297 293 285 284 275 244 229
237 239 238 238 241 247 246 246 246 246 241 249 253 255 253 254 256 258 261 264 266 273 272 274 277 279 284 285 286 287 285 287 290 291 294 297 298 298 298 294 283 276 263 231 224
233 239 241 238 234 233 242 242 239 241 243 245 248 252 255 258 260 262 264 265 269 273 274 275 279 280 282 283 284 284 288 290 291 293 297 300 300 299 295 290 284 269 250 222 222